Location: Haulchin
(50.3172°N, 3.4360°E)
Time: 13:10:40
(UTC+00:00)

EXPRESS MD2 - Pass Details

Date: 23 May 2024
Orbit: 262 x 3331 km, 49.9° (Epoch: 18 June)

Event Time Altitude Azimuth Distance (km) Brightness Sun altitude
Exits shadow 01:25:01 18° 142° (SE) 1,026 4.4 -15.5°
Maximum altitude 01:25:12 18° 137° (SE) 1,039 4.5 -15.5°
Drops below altitude 10° 01:27:47 10° 91° (E) 1,734 6.2 -15.4°
Sets 01:31:11 0° 75° (ENE) 3,105 7.8 -15.1°
